Miscellaneous Local Product
Issued by NWS North Platte, NE

Home | Current Version | Previous Version | Graphics & Text | Print | Product List | Glossary On
Versions: 1 2 3 4 5 6 7 8 9 10 11 12 13 14 15 16 17 18 19 20 21 22 23 24 25 26 27 28 29 30 31 32 33 34 35 36 37 38 39 40 41 42 43 44 45 46 47 48 49 50
000
AXUS43 KLBF 220310
MISLBF


WESTERN AND NORTH CENTRAL NEBRASKA HOURLY WEATHER ROUNDUP
NATIONAL WEATHER SERVICE NORTH PLATTE NE
900 PM CST SAT JAN 21 2017

NOTE: "FAIR" INDICATES FEW OR NO CLOUDS BELOW 12,000 FEET WITH NO
SIGNIFICANT WEATHER AND/OR OBSTRUCTIONS TO VISIBILITY.

NOTE: STATIONS NOT REPORTING VARIABLES SUCH AS SKY/WEATHER OR
PRESSURE ARE PROVIDED BY RAWS AND APRS NETWORKS AND ARE NOT UNDER
NATIONAL WEATHER SERVICE QUALITY CONTROL.

...OBSERVATIONS IN AND NEAR THE EASTERN PANHANDLE OF NEBRASKA...

CITY           SKY/WX    TMP DP  RH WIND       PRES   REMARKS
PINE RIDGE     CLOUDY    22  21  96 CALM      29.59R
CHADRON        CLOUDY    25  23  92 SW3       29.60R
ALLIANCE       CLEAR     25  21  85 W3        29.57R
SIDNEY         MOCLDY    28  22  78 CALM      29.57R
CRESCENT LAKE    N/A     35  27  73 CALM        N/A
$$

...OBSERVATIONS IN NORTHERN NEBRASKA AND FAR SOUTHERN SOUTH DAKOTA...

CITY           SKY/WX    TMP DP  RH WIND       PRES   REMARKS
WINNER         FAIR      30  28  92 SW3       29.56R
VALENTINE      CLEAR     25  23  92 W6        29.57R WCI  18
THEDFORD       CLEAR     32  29  90 CALM      29.57R
AINSWORTH      CLEAR     27  26  96 W5        29.57R WCI  22
O`NEILL        CLEAR     33  29  85 NW6       29.56R WCI  28
ORD            CLEAR     32  27  81 CALM      29.55R
BROKEN BOW     CLEAR     34  31  88 N8        29.55R WCI  27
VALENTINE NWR    N/A     29  27  92 NW5         N/A  WCI  24
BUTTE            N/A     33  30  88 CALM        N/A
HALSEY           N/A     33  29  86 CALM        N/A
SARGENT          N/A     32  23  70 CALM        N/A
CHAMBERS         N/A     31  25  78 CALM        N/A
EWING            N/A     34  30  85 CALM        N/A
$$

...OBSERVATIONS IN SOUTHWEST NEBRASKA AND FAR NORTHEAST COLORADO...

CITY           SKY/WX    TMP DP  RH WIND       PRES   REMARKS
HOLYOKE        FAIR      34  28  80 N3        29.58R
IMPERIAL       CLOUDY    34  25  69 NW6       29.57R WCI  29
OGALLALA       CLOUDY    31  27  85 W3        29.57R
NORTH PLATTE   CLOUDY    28  25  88 NW3       29.56R
MCCOOK         CLEAR     33  27  78 N10       29.54R WCI  25
LEXINGTON      CLEAR     33  30  88 NW5       29.55R WCI  28
STAPLETON        N/A     31  26  81 CALM        N/A
GOTHENBURG       N/A     34  28  79 W3          N/A
CALLAWAY         N/A     35  30  82 N8          N/A  WCI  28
$$

...OBSERVATIONS IN CENTRAL LINCOLN COUNTY AREA...

CITY           SKY/WX    TMP DP  RH WIND       PRES   REMARKS
N.P. AIRPORT   CLOUDY    28  25  88 NW3       29.56R
N.P. DOWNTOWN    N/A     32  29  87 CALM        N/A
N.P. SOUTHEAST   N/A     32  28  83 CALM        N/A
N.P. HILLCREST   N/A     35  29  78 N8          N/A  WCI  28
$$

...SOME OBSERVATIONS FROM AROUND THE REGION...

CITY           SKY/WX    TMP DP  RH WIND       PRES   REMARKS
LARAMIE        CLOUDY    17  13  84 S5        29.59R WCI  10
CHEYENNE       CLOUDY    30  19  63 N5        29.58R WCI  25
DENVER         CLOUDY    33  24  69 NW8       29.57R WCI  26
AKRON          CLOUDY    34  24  67 NE3       29.57R
SCOTTSBLUFF    CLEAR     29  25  85 NE6       29.57R WCI  23
RAPID CITY     CLEAR     24  21  88 NW7       29.58R WCI  16
BISMARCK       PTCLDY    25  23  92 CALM      29.55R
PIERRE         CLEAR     20  19  96 CALM      29.56R
SIOUX FALLS    CLOUDY    32  30  92 W6        29.53R WCI  26
OMAHA          CLEAR     36  31  82 CALM      29.54R
GRAND ISLAND   CLEAR     31  30  96 CALM      29.54R
KANSAS CITY    CLOUDY    47  41  80 NE6       29.51F
WICHITA        CLOUDY    48  41  76 E9        29.43S
OKLAHOMA CITY  CLOUDY    54  41  61 SE13      29.34F
DALLAS         CLOUDY    60  51  72 VRB7      29.42F
AMARILLO       LGT RAIN  42  40  92 W15       29.35R
DODGE CITY     LGT RAIN  42  39  89 NE7       29.44R
HAYS           CLOUDY    44  38  79 NE12      29.49R
GOODLAND       CLOUDY    32  28  85 N7        29.53R WCI  26
$$




USA.gov is the U.S. government's official web portal to all federal, state and local government web resources and services.